Weather History for Wichita, KS

Change the Weather History Date:

Sunday, February 9, 2014

  Actual Average Record
Temperature  
Mean Temperature 22 °F 35 °F  
Max Temperature 29 °F 47 °F 84 °F (1976)
Min Temperature 15 °F 24 °F -9 °F (1899)
Degree Days  
Heating Degree Days 43 30  
Month to date heating degree days 411 274  
Since 1 July heating degree days 3385 3134  
Cooling Degree Days 0 0  
Month to date cooling degree days 0 0  
Year to date cooling degree days 0 0  
Moisture  
Dew Point 18 °F    
Average Humidity 82    
Maximum Humidity 92    
Minimum Humidity 71    
Precipitation  
Precipitation T in 0.04 in 1.59 in (1898)
Month to date precipitation 0.62 0.32  
Year to date precipitation 0.75 1.15  
Snow  
Snow T in 0.20 in 3.50 in (1986)
Month to date snowfall 8.8 1.3  
Since 1 July snowfall 15.2 10.5  
Snow Depth 3.00 in    
Sea Level Pressure  
Sea Level Pressure 30.27 in    
Wind  
Wind Speed 12 mph (NNE)    
Max Wind Speed 18 mph    
Max Gust Speed 23 mph    
Visibility 4 miles    
Events Snow    
T = Trace of Precipitation, MM = Missing Value Source: NWS Daily Summary

Daily Weather History Graph

Daily Weather History Graph

Search for Another Location

Airport:

Trip Planner

Search our weather history database for the weather conditions in past years. The results will help you decide how hot, cold, wet, or windy it might be!

Date:

Astronomy

Feb. 09, 2014 Rise Set
Actual Time 7:25 AM CST 6:02 PM CST
Civil Twilight 6:58 AM CST 6:29 PM CST
Nautical Twilight 6:27 AM CST 7:00 PM CST
Astronomical Twilight 5:57 AM CST 7:31 PM CST
Moon 1:45 PM CST (2/9) 3:30 AM CST (2/9)
Length of Visible Light 11h 30m
Length of Day
10h 36m
Waxing Gibbous, 77% of the Moon is Illuminated
Feb 9
Waxing Gibbous
Feb 14
Full
Feb 22
Last Quarter
Mar 1
New
Mar 8
First Quarter

Hourly Weather History & Observations

Time (CST) Temp. Windchill Dew Point Humidity Pressure Visibility Wind Dir Wind Speed Gust Speed Precip Events Conditions
12:53 AM 28.9 °F - 26.1 °F 89% 30.17 in 2.0 mi Calm Calm - N/A   Overcast
1:18 AM 28.4 °F 22.2 °F 26.6 °F 93% 30.16 in 4.0 mi North 5.8 mph - N/A   Overcast
1:53 AM 28.9 °F 21.9 °F 25.0 °F 85% 30.18 in 3.0 mi NNE 6.9 mph - N/A   Overcast
2:09 AM 28.4 °F 20.4 °F 26.6 °F 93% 30.14 in 2.0 mi North 8.1 mph - N/A   Overcast
2:53 AM 28.0 °F 19.3 °F 26.1 °F 92% 30.20 in 2.5 mi North 9.2 mph - N/A   Overcast
3:53 AM 27.0 °F 15.6 °F 24.1 °F 89% 30.18 in 3.0 mi NNE 13.8 mph - N/A   Overcast
4:53 AM 27.0 °F 18.7 °F 24.1 °F 89% 30.17 in 4.0 mi NE 8.1 mph - N/A   Overcast
5:53 AM 27.0 °F 18.7 °F 24.1 °F 89% 30.20 in 4.0 mi NNE 8.1 mph - N/A   Overcast
6:53 AM 26.1 °F 16.2 °F 23.0 °F 88% 30.21 in 4.0 mi NNE 10.4 mph - N/A   Overcast
7:31 AM 26.6 °F 15.7 °F 21.2 °F 80% 30.16 in 4.0 mi ENE 12.7 mph - N/A   Overcast
7:53 AM 26.1 °F 15.6 °F 21.9 °F 84% 30.20 in 3.0 mi NE 11.5 mph - N/A   Overcast
8:45 AM 24.8 °F 14.0 °F 19.4 °F 80% 30.18 in 3.0 mi NE 11.5 mph - N/A   Overcast
8:53 AM 25.0 °F 13.6 °F 19.9 °F 81% 30.24 in 3.0 mi NE 12.7 mph - N/A   Overcast
9:33 AM 24.8 °F 14.6 °F 19.4 °F 80% 30.25 in 3.0 mi North 10.4 mph - N/A   Overcast
9:53 AM 24.1 °F 13.1 °F 19.0 °F 81% 30.29 in 3.0 mi North 11.5 mph - N/A   Overcast
10:53 AM 24.1 °F 13.7 °F 18.0 °F 77% 30.30 in 3.0 mi North 10.4 mph - N/A   Haze
11:53 AM 24.1 °F 13.1 °F 18.0 °F 77% 30.30 in 3.0 mi North 11.5 mph - N/A   Haze
12:53 PM 25.0 °F 12.6 °F 18.0 °F 75% 30.27 in 2.0 mi NNE 15.0 mph - N/A   Haze
1:53 PM 25.0 °F 14.2 °F 18.0 °F 75% 30.27 in 2.5 mi North 11.5 mph - N/A   Haze
2:53 PM 23.0 °F 10.1 °F 16.0 °F 74% 30.27 in 2.5 mi North 15.0 mph 21.9 mph N/A   Haze
3:53 PM 21.9 °F 9.2 °F 15.1 °F 75% 30.27 in 2.5 mi NNE 13.8 mph - N/A   Haze
4:53 PM 21.9 °F 9.2 °F 14.0 °F 72% 30.29 in 2.5 mi NNE 13.8 mph - N/A   Haze
5:30 PM 21.2 °F 8.3 °F 14.0 °F 74% 30.27 in 4.0 mi NE 13.8 mph - N/A   Haze
5:53 PM 21.0 °F 8.1 °F 14.0 °F 74% 30.32 in 4.0 mi NE 13.8 mph - N/A   Haze
6:53 PM 19.9 °F 6.7 °F 12.9 °F 74% 30.33 in 5.0 mi NNE 13.8 mph - N/A   Haze
7:53 PM 19.9 °F 5.7 °F 12.0 °F 71% 30.35 in 6.0 mi NNE 16.1 mph - N/A   Haze
8:53 PM 18.0 °F 4.2 °F 12.0 °F 78% 30.38 in 5.0 mi NE 13.8 mph - N/A   Haze
9:35 PM 17.6 °F 3.7 °F 10.4 °F 73% 30.33 in 6.0 mi NNE 13.8 mph - N/A   Haze
9:53 PM 17.1 °F 3.0 °F 10.9 °F 77% 30.39 in 6.0 mi NNE 13.8 mph - N/A   Haze
10:53 PM 16.0 °F 0.6 °F 10.0 °F 77% 30.39 in 6.0 mi NNE 16.1 mph - N/A   Haze
11:32 PM 15.8 °F 1.4 °F 8.6 °F 73% 30.35 in 6.0 mi NNE 13.8 mph - N/A   Haze
11:53 PM 15.1 °F 1.1 °F 10.0 °F 80% 30.43 in 2.5 mi North 12.7 mph - 0.00 in Snow Light Snow